GOES 6

Satellite information

Favourite Embed

Satellite Type and Status

PAYLOADIN ORBIT

Key statistics

Satellite GOES 6 at a glance.

Uptime

15349

Days in orbit

Revolutions

≈ 1.0

Per day

Orbit

OTHER

Other

Inclination

10.8

Latest

Satellite identification and parameters

Extended collection of information and parameters for GOES 6.

Object identification

Identified? True

Debris? False

Object name: GOES 6

International designator: 1983-041A

Object number (NORAD): 14050

Object ID (CCSDS): 14050

Country: UNITED STATES OF AMERICA (US)

Current information (Y/N): Y

RCS size: LARGE

Orbital parameters

Period: 1435.93 minutes

Inclination: 10.8432 deg

SMA: 42161.467 km

Apoapsis: 35789.412 km

Periapsis: 35777.252 km

RAAN: 323.8985 deg

Eccentricy: 0.0001442

Argument of periapsis: 203.1639 deg

Mean anomaly: 152.2918 deg

Mean motion: 1.00283433 rev/day

Mean motion (dot): -0.00000283 rev/day2

B* drag term: 0.0 1/REarth

Two-line elements (TLE)

Creation date: May 6, 2025, 3:54 a.m.

Reference frame: TEME

Reference center: EARTH

Epoch: May 5, 2025, 11:24 a.m. UTC

TLE line 0: 0 GOES 6

TLE line 1: 1 14050U 83041A 25125.47567679 -.00000283 00000-0 00000-0 0 9996

TLE line 2: 2 14050 10.8432 323.8985 0001442 203.1639 152.2918 1.00283433211920

Live tracking on map

Real-time ground track for satellite GOES 6.

In-orbit conjunctions

A list of the most updated potential collisions computed for object GOES 6.

Target Orbit TCA Probability of collision Miss distance Type
GOES 1 (SMS-C) OTHER 2025-02-28 18:24:57 TBA 2077.0 (m) PAYLOAD

Associated space launch

Geostationary meteorological satellite

GOES 6 was lifted into orbit during the mission ‘Delta 3914 | GOES 6’, on board a Delta 3914 space rocket.

The launch took place on April 28, 1983, 10:26 p.m. from Space Launch Complex 17A.

For more information about the launch, click the button.

Launch to space Delta 3914 | GOES 6
Delta 3914 | GOES 6

Agency: N/A

Status: Launch Successful

Launch date: April 28, 1983, 10:26 p.m. UTC

Rocket: Delta 3914

Launch pad: Space Launch Complex 17A

Location: Cape Canaveral SFS, FL, USA

...

Latest news about this satellite

There are no fresh news available about this satellite. Check back as we update our databases every day.


Newsletter sign-up

Weekly statistics, charts and insights to help you stay on top of the space industry.